Location: �terpigny
(49.8910°N, 2.9249°E)
Time: 07:55:14
(UTC+00:00)

PicSat - Visible Passes

Search period start: 25 June 2022 00:00
Search period end: 05 July 2022 00:00
Orbit: 453 x 459 km, 97.4° (Epoch: 24 June)

Date Brightness Start Highest point End Pass type
(mag) Time Alt. Az. Time Alt. Az. Time Alt. Az.
25 Jun ? 21:24:21 14° SE 21:26:55 34° ENE 21:30:05 10° N visible
25 Jun ? 22:58:07 13° SW 22:59:55 19° W 23:02:26 10° NW visible
26 Jun ? 20:51:54 10° ESE 20:54:04 16° ENE 20:56:14 10° NNE visible
26 Jun ? 22:24:42 21° SSW 22:26:37 44° W 22:29:57 10° NNW visible
27 Jun ? 21:51:15 20° SSE 21:53:28 71° ENE 21:56:55 10° N visible
28 Jun ? 21:17:46 12° SE 21:20:26 29° ENE 21:23:28 10° N visible
28 Jun ? 22:51:32 15° SW 22:53:20 22° W 22:56:06 10° NW visible
29 Jun ? 20:45:43 10° E 20:47:31 14° ENE 20:49:20 10° NNE visible
29 Jun ? 22:18:02 22° S 22:20:00 53° W 22:23:24 10° NNW visible
30 Jun ? 21:44:31 19° SSE 21:46:47 58° ENE 21:50:11 10° N visible
30 Jun ? 23:18:47 10° WSW 23:20:01 12° W 23:21:16 10° WNW visible
01 Jul ? 21:10:58 11° ESE 21:13:42 24° ENE 21:16:33 10° N visible
01 Jul ? 22:44:44 17° SW 22:46:30 26° W 22:49:29 10° NW visible
02 Jul ? 20:39:27 10° E 20:40:45 12° ENE 20:42:03 10° NE visible
02 Jul ? 22:11:09 23° S 22:13:07 66° WSW 22:16:34 10° NNW visible
03 Jul ? 21:37:33 18° SE 21:39:51 47° ENE 21:43:12 10° N visible
03 Jul ? 23:11:19 11° WSW 23:13:00 14° W 23:14:52 10° WNW visible
04 Jul ? 21:04:06 10° ESE 21:06:44 21° ENE 21:09:23 10° NNE visible
04 Jul ? 22:37:41 20° SW 22:39:26 31° W 22:42:34 10° NNW visible
